Flag for U.S.A. Weather past 2 weeks in Anchorage, Alaska, U.S.A.

Now
28 °F

Clear.


Feels Like: 28 °F
Forecast: 23 / 35 °F
Wind: No wind

Location: Lake Hood Seaplane

Current Time: Oct 26, 2014 at 2:01:01 AM

Latest Report: Oct 26, 2014 at 12:53 AM


Visibility: 10 mi

Pressure: 29.83 "Hg

Humidity: 85%

Dew point: 24 °F

Location of AnchorageLocation

Historic Weather in Anchorage — Graph

°F

Anchorage temperature yesterday

Maximum temperature yesterday: 36 °F (at 1:53 PM)
Minimum temperature yesterday: 28 °F (at 8:53 PM)
Average temperature yesterday: 32 °F

Past Weeks' High & Low Weather Summary

 TemperatureHumidityPressure
High49 °F (Oct 13, 3:53 PM)93% (Oct 20, 12:00 PM)29.93 "Hg (Oct 20, 12:00 PM)
Low24 °F (Oct 23, 7:53 AM)49% (Oct 14, 11:53 AM)28.96 "Hg (Oct 20, 6:53 AM)
Average37 °F75%29.44 "Hg
* Reported Oct 11 12:53 AM — Oct 26 12:53 AM, Anchorage, Weather by CustomWeather, © 2014

Note: Actual official high and low records may vary slightly from our data, if they occured in-between our weather recording intervals... More about our weather records

Advertising

Anchorage weather history for previous 24 hours

 ConditionsComfort  
Time TempWeatherWind HumidityBarometerVisibility
12:53 AM
Oct 26
28 °FClear.No wind85%29.83 "Hg10 mi
11:53 PM
Oct 25
28 °FPassing clouds.3 mph85%29.83 "Hg10 mi
10:53 PM28 °FPassing clouds.3 mph85%29.84 "Hg10 mi
9:53 PM29 °FPassing clouds.No wind79%29.83 "Hg10 mi
8:53 PM28 °FClear.No wind85%29.83 "Hg10 mi
7:53 PM31 °FPassing clouds.5 mph79%29.84 "Hg10 mi
6:53 PM32 °FSunny.No wind73%29.84 "Hg10 mi
5:53 PM34 °FSunny.No wind70%29.85 "Hg10 mi
4:53 PM36 °FScattered clouds.3 mph64%29.85 "Hg10 mi
3:53 PM35 °FSunny.3 mph64%29.85 "Hg10 mi
2:53 PM35 °FOvercast.3 mph67%29.87 "Hg10 mi
1:53 PM36 °FOvercast.6 mph64%29.88 "Hg10 mi
12:53 PM34 °FOvercast.No wind79%29.89 "Hg10 mi
12:00 PM34 °FMore clouds than sun.6 mph81%29.89 "Hg10 mi
10:53 AM33 °FMostly cloudy.No wind85%29.90 "Hg10 mi
9:53 AM33 °FLow clouds.No wind85%29.90 "Hg10 mi
8:53 AM32 °FLow clouds.No wind85%29.90 "Hg10 mi
7:53 AM32 °FMostly cloudy.No wind85%29.91 "Hg10 mi
6:53 AM32 °FOvercast.3 mph82%29.91 "Hg10 mi
5:53 AM32 °FMostly cloudy.No wind79%29.91 "Hg10 mi
4:53 AM32 °FOvercast.No wind82%29.91 "Hg10 mi
3:53 AM33 °FMostly cloudy.No wind85%29.92 "Hg10 mi
2:53 AM32 °FOvercast.No wind88%29.93 "Hg10 mi
Weather by CustomWeather, © 2014

See weather overviewHow to use our weather pages